TITAN 3C TRANSTAGE DEB, 26050

Orbit data source: Space-Track

TITAN 3C TRANSTAGE DEB, 26050 is space debris in HEO originally from a launch on Tue, 21 Dec 1965 UTC launched from the Air Force Eastern Test Range (AFETR). Debris objects in space refer to the collection of defunct objects orbiting the Earth. Examples of debris include non-operational satellites, rocket bodies, and fragments generated from explosions, collisions, or faulty payload assembly.

Loading next visibility...
Identifier
26050, 1965-108AJ
Orbit
HEO
Last TLE update
14 hours ago
Origin
Manufacturer
Unknown
Mission
Spacecraft
Bus & Motor
Unknown
Mass
Unknown
Launch date (UTC)
1965-12-21 (60 years ago)
Launch vehicle
Unknown
Launch site
Air Force Eastern Test Range (AFETR)
Object type
Payload
Rocket body
Debris
Shape & HBR
Unknown
Radar Cross Section
Medium (>0.1 m² and <1 m²)

Expand to show TLE details & history

TLE from 14 hours ago
0 TITAN 3C TRANSTAGE DEB
1 26050U 65108AJ  25181.84387363 -.00000217  00000-0 -43440-2 0  9991
2 26050  26.6937   4.7464 6622965  41.1540 353.3835  2.69852419256733
Epoch: 2025-06-30T20:15Z
TLE epoch observation values (Epoch: 2025-06-30T20:15:10.681Z)
Latitude
0.00012°
Longitude
141.8016°
Altitude
1,790.571 km
Speed
8.905 km/s
True Right ascension
00h 18m 58s
True Declination
0° 00' 00"
Sunlit
Object was in daylight at epoch
Visualization orbit readout
Latitude
-20.9326°
Longitude
11.04171°
Altitude
28,587.69 km
Speed
2.124 km/s
Apparent Right ascension
15h 03m 29s
Apparent Declination
-25° 57' 23"
Sunlit
Object is in daylight
Visualization observer readout
Local Sidereal Time
22:22:49
Azimuth
260.604° W
Elevation
-30.985°
Doppler factor
1
Orbital elements
Apogee altitude
29,853.934 km
Perigee altitude
982.582 km
Semi-major axis
21,796.395 km
Eccentricity
0.6623
Inclination
26.6937°
RAAN
4.7464°
Arg. of periapsis
41.154°
True anomaly
Unknown
Mean anomaly
353.3835°
Eccentric anomaly
Unknown
Mean motion
0.67448 °/min
Orbital period
533.75 mins
BSTAR
-0.004344
Loading maneuver chart data...
Loading SW <> Apogee altitude chart data...

TITAN 3C TRANSTAGE DEB Visibility forecast

Observer location: undefined°, undefined°

Span
Click to sort rows by Start time (UTC) header in descending order
Start Az.
Max El. time (UTC)
Max El. Az.
Max El.
End time (UTC)
End Az.
401 mins2025-07-01 23:27:19.245Z260.35° W2025-07-01 23:58:19.245Z200.503° SSW34.103°2025-07-02 06:08:19.245Z187.877° SSW
|